カタリナ-アトラス彗星

C/2020 K8 ( Catalina-ATLAS )

English version
Home page
Updated on June 14, 2021

---------------------------------------------------------------------

・ プロフィール

発見日 2020年5月25日、6月7日
発見光度 19.3等、18.7等
発見者 Catalina Sky Survey, Asteroid Terrestrial-Impact Last Alert System (ATLAS) search program

・ 写真集

・ 軌道要素

Epoch 2020 Sept. 28.0 TT = JDT 2459120.5
T 2020 Sept. 14.51804 TT                                Rudenko
q   0.4745873            (2000.0)            P               Q
z  -0.0004574      Peri.  260.06146     +0.15027869     -0.98854739
 +/-0.0000034      Node   181.51688     +0.97939020     +0.14695267
e   1.0002171      Incl.   31.41370     -0.13494870     -0.03433604
From 295 observations 2020 May 25-2021 Apr. 6, mean residual 0".9.

・ 星図

・ 光度変化

        m1 = 15.0 + 5 logΔ +  7.0 log r  [ ,0]  (              〜2020年 9月14日)
        m1 = 16.5 + 5 logΔ + 11.5 log r  [0, ]  (2020年 9月14日〜              )

---------------------------------------------------------------------

軌道要素はM.P.E.C. 2021-L04に掲載されたものです。
星図はステラナビゲータ Ver.10 (アストロアーツ) で作成したものです。
光度グラフはComet for Windowsで作成したものです。

---------------------------------------------------------------------

Copyright(C) Seiichi Yoshida (comet@aerith.net). All rights reserved.